[[{"header":{"parameterUnit":"m.s-1","parameterCategory":1,"la1":30.2991,"la2":30.254,"lo1":-89.0895,"lo2":-89.0444,"dy":0.0017,"dx":0.0017,"nx":28,"ny":28,"refTime":"2024-03-25T09:00:00:Z","depth":0,"parameterNumber":2,"parameterNumberName":"U-component_of_WINDS"},"data":[0,0,0,0,0,0,0,0,0,0,0,0,0,0,0,0,0,0,0,0,0,0,0,0,0,0,0,0,0,0,0,0,0,0,0,0,0,0,0,0,0,0,0,0,0,0,0,0,0,0,0,0,0,0,0,0,0,0,-8.7055,-8.7056,0,-8.722,-8.7222,-8.7224,-8.7227,-8.7225,-8.7223,-8.7221,-8.7385,-8.7392,-8.7398,0,0,0,0,0,0,0,0,0,0,0,0,0,-8.6739,-8.6744,-8.7054,-8.7057,-8.7059,-8.722,-8.7222,-8.7224,-8.7228,-8.7225,-8.7223,-8.7221,-8.7383,-8.7391,-8.7398,0,0,0,0,0,0,0,0,0,0,0,0,0,-8.6887,-8.6746,-8.7054,-8.708,-8.7084,-8.7219,-8.7222,-8.7225,-8.7228,-8.7225,-8.7222,-8.7219,-8.7381,-8.739,-8.7399,-8.7518,0,0,-8.7428,-8.7432,0,0,0,0,0,0,0,0,-8.6878,-8.6898,-8.7074,-8.7079,-8.7083,-8.72,-8.7171,-8.7323,-8.7229,-8.7173,-8.7221,-8.7218,-8.7326,-8.734,-8.7377,-8.7526,-8.7533,-8.7429,-8.7434,-8.7438,-8.7441,0,0,0,0,0,0,0,-8.6868,-8.6891,-8.712,-8.7077,-8.7082,-8.7082,-8.71,-8.7199,-8.7264,-8.7178,-8.7179,-8.7198,-8.7328,-8.7368,-8.7381,-8.7535,-8.7429,-8.7437,-8.7443,-8.7446,-8.7789,-8.7793,0,0,0,0,0,0,-8.6853,-8.6883,-8.7114,-8.7125,-8.6971,-8.709,-8.711,-8.7165,-8.7263,-8.7276,-8.7201,-8.7198,-8.7353,-8.737,-8.7387,-8.7531,-8.7438,-8.7447,-8.7453,-8.7786,-8.779,-8.7794,0,0,0,0,0,0,-8.6847,-8.6874,-8.7108,-8.7004,-8.7034,-8.7099,-8.7161,-8.717,-8.7211,-8.7281,-8.7292,-8.723,-8.7352,-8.7373,-8.7486,-8.7537,-8.7451,-8.746,-8.7782,-8.7787,-8.7792,-8.7821,0,0,0,0,0,0,-8.6837,-8.6872,-8.6918,-8.7005,-8.7039,-8.7205,-8.7164,-8.7176,-8.7227,-8.7225,-8.7311,-8.7323,-8.7351,-8.7472,-8.7495,-8.7548,-8.7467,-8.7777,-8.7784,-8.779,-8.7815,-8.7826,-8.7835,0,0,0,0,0,-8.6826,-8.6918,-8.692,-8.6948,-8.7099,-8.7208,-8.7227,-8.7259,-8.7232,-8.7278,-8.7323,-8.732,-8.7528,-8.7483,-8.7509,-8.7566,-8.7774,-8.7782,-8.779,-8.7811,-8.7824,-8.7835,0,0,0,0,0,0,-8.6832,-8.693,-8.6933,-8.7057,-8.7124,-8.7208,-8.7267,-8.7273,-8.7348,-8.7342,-8.7378,-8.7398,-8.7509,-8.7549,-8.7497,-8.7686,-8.7648,-8.7661,-8.7655,-8.7668,-8.7678,-8.7664,-8.7475,0,0,0,0,0,-8.6849,-8.6931,-8.7011,-8.7112,-8.7146,-8.7201,-8.725,-8.727,-8.734,-8.7368,-8.7422,-8.7489,-8.757,-8.7622,-8.77,-8.7823,-8.7841,-8.7875,-8.7885,-8.7893,-8.7903,-8.797,-8.7985,-8.7819,-8.7819,-8.7819,0,0,-8.6882,-8.6946,-8.6994,-8.7115,-8.717,-8.7252,-8.7225,-8.7313,-8.7374,-8.7381,-8.749,-8.7532,-8.761,-8.7728,-8.7782,-8.7764,-8.7954,-8.7903,-8.7909,-8.7914,-8.7979,-8.7995,-8.8009,-8.7825,-8.7824,-8.7823,0,0,-8.6984,-8.7041,-8.7131,-8.7188,-8.7272,-8.7309,-8.733,-8.7415,-8.7444,-8.7555,-8.7561,-8.7634,-8.7773,-8.7828,-8.7874,-8.8,-8.7999,-8.8025,-8.8076,-8.8141,-8.8154,-8.8165,-8.8208,-8.8223,-8.8036,-8.8036,-8.8036,0,-8.7013,-8.7139,-8.7176,-8.7266,-8.7318,-8.7331,-8.7422,-8.7474,-8.7579,-8.7614,-8.7594,-8.7769,-8.7822,-8.7952,-8.7984,-8.8022,-8.8046,-8.8013,-8.8149,-8.8162,-8.8173,-8.8214,-8.823,-8.8038,-8.8038,-8.8038,-8.8037,0,-8.7171,-8.7258,-8.7321,-8.7424,-8.7484,-8.7573,-8.7622,-8.7679,-8.7694,-8.7733,-8.7845,-8.7911,-8.8002,-8.8035,-8.805,-8.8168,-8.8155,-8.8142,-8.8103,-8.819,-8.8229,-8.8246,-8.8041,-8.8041,-8.804,-8.8039,0,0,-8.7276,-8.7402,-8.7424,-8.747,-8.7566,-8.7633,-8.7724,-8.7816,-8.7862,-8.7935,-8.801,-8.8129,-8.8118,-8.817,-8.8193,-8.825,-8.8344,-8.823,-8.8233,-8.8246,-8.8475,-8.8481,-8.8499,-8.8346,-8.8349,-8.8352,-8.8468,0,-8.7386,-8.7548,-8.7585,-8.7723,-8.7804,-8.782,-8.7898,-8.7964,-8.8004,-8.8077,-8.812,-8.8203,-8.8184,-8.8216,-8.8274,-8.832,-8.839,-8.8313,-8.8413,-8.8416,-8.8389,-8.852,-8.8527,-8.8633,-8.8484,-8.8486,-8.8488,0,-8.7535,-8.7613,-8.7759,-8.7845,-8.7881,-8.795,-8.8038,-8.8109,-8.8184,-8.8209,-8.8269,-8.8286,-8.838,-8.834,-8.8468,-8.8415,-8.846,-8.8489,-8.8494,-8.8501,-8.8454,-8.8527,-8.8668,-8.8682,-8.8513,-8.8511,-8.8509,0,-8.7593,-8.7736,-8.7842,-8.7882,-8.7986,-8.8034,-8.8079,-8.8153,-8.8206,-8.8282,-8.8317,-8.8403,-8.8449,-8.8515,-8.8554,-8.8522,-8.8679,-8.8643,-8.8699,-8.8698,-8.8728,-8.8724,-8.8873,-8.8763,-8.8763,-8.8762,-8.8762,0,-8.771,-8.7798,-8.787,-8.7934,-8.8034,-8.8077,-8.8174,-8.8219,-8.8284,-8.8357,-8.8377,-8.8445,-8.8495,-8.8569,-8.8601,-8.8701,-8.8723,-8.8744,-8.875,-8.874,-8.8736,-8.8766,-8.8758,-8.8767,-8.8766,-8.8765,-8.8764,0,-8.779,-8.7842,-8.7958,-8.8048,-8.8073,-8.8142,-8.8218,-8.8281,-8.8323,-8.8415,-8.8439,-8.8503,-8.8592,-8.864,-8.875,-8.8772,-8.8883,-8.8888,-8.8858,-8.886,-8.8912,-8.8905,-8.9082,-8.9106,-8.8983,-8.8984,-8.8985,0,-8.7858,-8.7927,-8.8026,-8.8077,-8.8123,-8.8206,-8.8261,-8.8307,-8.8363,-8.8456,-8.8507,-8.8598,-8.8672,-8.8813,-8.8869,-8.8954,-8.8958,-8.9015,-8.8971,-8.8958,-8.8955,-8.8949,-8.8955,-8.902,-8.9022,-8.9023,-8.9023,0,-8.7974,-8.7997,-8.8077,-8.8166,-8.8231,-8.8303,-8.8374,-8.8415,-8.8472,-8.8534,-8.8626,-8.8685,-8.8799,-8.8888,-8.8978,-8.9023,-8.9032,-8.9038,-8.9055,-8.9042,-8.9021,-8.903,-8.8875,-8.9032,-8.9031,-8.903,-8.903,-8.903,-8.8049,-8.811,-8.8189,-8.8277,-8.8336,-8.8403,-8.8466,-8.8517,-8.8596,-8.8693,-8.8716,-8.8813,-8.8888,-8.901,-8.9058,-8.9134,-8.9122,-8.9147,-8.9153,-8.9158,-8.9158,-8.9013,-8.9151,-8.9151,-8.915,-8.915,-8.915,0,-8.8162,-8.8215,-8.8296,-8.8396,-8.8465,-8.8472,-8.8551,-8.8608,-8.8693,-8.8764,-8.8838,-8.8944,-8.9031,-8.9095,-8.9184,-8.9232,-8.9238,-8.9253,-8.9248,-8.9258,-8.9165,-8.914,-8.9246,-8.9246,-8.9246,-8.9246,-8.9246,-8.9246,-8.823,-8.8334,-8.8367,-8.85,-8.8552,-8.8649,-8.8693,-8.8754,-8.8811,-8.8929,-8.9002,-8.9044,-8.9112,-8.9206,-8.9286,-8.9303,-8.9333,-8.9347,-8.9364,-8.9275,-8.9264,-8.9254,-8.9231,-8.9354,-8.9355,-8.945,-8.945,-8.9451]},{"header":{"parameterUnit":"m.s-1","parameterCategory":1,"la1":30.2991,"la2":30.254,"lo1":-89.0895,"lo2":-89.0444,"dy":0.0017,"dx":0.0017,"nx":28,"ny":28,"refTime":"2024-03-25T09:00:00:Z","depth":0,"parameterNumber":3,"parameterNumberName":"V-component_of_WINDS"},"data":[0,0,0,0,0,0,0,0,0,0,0,0,0,0,0,0,0,0,0,0,0,0,0,0,0,0,0,0,0,0,0,0,0,0,0,0,0,0,0,0,0,0,0,0,0,0,0,0,0,0,0,0,0,0,0,0,0,0,6.3786,6.3787,0,6.3856,6.3857,6.3858,6.3831,6.3829,6.3828,6.3826,6.3893,6.3897,6.39,0,0,0,0,0,0,0,0,0,0,0,0,0,6.3627,6.363,6.3786,6.3787,6.3788,6.3856,6.3857,6.3858,6.3831,6.3829,6.3827,6.3826,6.3892,6.3896,6.39,0,0,0,0,0,0,0,0,0,0,0,0,0,6.3696,6.3631,6.3786,6.3783,6.3783,6.3856,6.3857,6.3858,6.3832,6.3829,6.3827,6.3825,6.3891,6.3896,6.3901,6.3979,0,0,6.3916,6.3918,0,0,0,0,0,0,0,0,6.3692,6.3702,6.3782,6.3783,6.3784,6.3832,6.3825,6.3898,6.3832,6.3813,6.3826,6.3823,6.3875,6.3881,6.3899,6.3982,6.3985,6.3916,6.3919,6.3921,6.3923,0,0,0,0,0,0,0,6.3688,6.3699,6.3813,6.3783,6.3784,6.3777,6.3784,6.3839,6.3856,6.3815,6.3813,6.3822,6.3875,6.3894,6.39,6.3986,6.3916,6.392,6.3923,6.3925,6.414,6.4142,0,0,0,0,0,0,6.3683,6.3695,6.3811,6.3816,6.3731,6.3782,6.379,6.3819,6.3856,6.3859,6.3824,6.382,6.3887,6.3895,6.3903,6.3999,6.3921,6.3926,6.3929,6.4137,6.414,6.4143,0,0,0,0,0,0,6.368,6.3694,6.3808,6.3755,6.3769,6.3787,6.382,6.3822,6.3842,6.3863,6.3865,6.3841,6.3886,6.3896,6.3961,6.4001,6.3928,6.3932,6.4134,6.4138,6.4142,6.4192,0,0,0,0,0,0,6.3675,6.3693,6.3723,6.3756,6.3772,6.3867,6.3823,6.3825,6.3851,6.3847,6.388,6.3883,6.3885,6.3954,6.3966,6.4007,6.3936,6.413,6.4136,6.4141,6.4186,6.4197,6.4206,0,0,0,0,0,6.367,6.3732,6.3724,6.3739,6.381,6.3869,6.3878,6.388,6.3854,6.3885,6.3899,6.3882,6.3995,6.3961,6.3974,6.4017,6.4128,6.4134,6.414,6.4182,6.4195,6.4206,0,0,0,0,0,0,6.37,6.3736,6.3728,6.3803,6.3834,6.3864,6.3903,6.3893,6.393,6.3925,6.3924,6.3932,6.4,6.4015,6.3977,6.4096,6.4057,6.4066,6.4084,6.4097,6.4106,6.4102,6.394,0,0,0,0,0,6.3717,6.3762,6.379,6.3854,6.387,6.3884,6.3909,6.3909,6.394,6.3952,6.397,6.4,6.4042,6.407,6.411,6.4188,6.4196,6.4224,6.4234,6.4242,6.425,6.4295,6.4309,6.4164,6.4164,6.4164,0,0,6.3749,6.3774,6.3803,6.3861,6.3884,6.3932,6.3895,6.3945,6.398,6.3959,6.4023,6.4038,6.4071,6.4144,6.4177,6.4158,6.4292,6.425,6.4256,6.426,6.4303,6.4317,6.4329,6.4168,6.4167,6.4167,0,0,6.3834,6.3856,6.3914,6.3939,6.3976,6.3986,6.3999,6.4033,6.4043,6.4107,6.4093,6.4134,6.4206,6.4232,6.4254,6.4352,6.4338,6.4364,6.4415,6.446,6.4471,6.4481,6.4518,6.4531,6.4372,6.4372,6.4372,0,6.3869,6.3941,6.3944,6.3998,6.4024,6.401,6.4068,6.4091,6.4139,6.4158,6.4136,6.4229,6.425,6.433,6.4355,6.4372,6.4389,6.4361,6.4469,6.448,6.4489,6.4525,6.4538,6.4375,6.4375,6.4375,6.4374,0,6.3985,6.4035,6.4076,6.4126,6.4157,6.4212,6.4224,6.4255,6.4252,6.4264,6.4332,6.4357,6.4403,6.4422,6.4418,6.4503,6.449,6.4469,6.443,6.4506,6.454,6.4553,6.438,6.4379,6.4378,6.4377,0,0,6.4089,6.4143,6.4158,6.4182,6.4223,6.4261,6.4316,6.4364,6.4392,6.4425,6.4473,6.4536,6.4518,6.4543,6.4542,6.4581,6.4661,6.4556,6.4556,6.4576,6.4758,6.4775,6.4791,6.4652,6.4654,6.4656,6.4756,0,6.4179,6.4279,6.4284,6.4374,6.4422,6.441,6.4458,6.4489,6.4502,6.4543,6.4556,6.4603,6.4574,6.459,6.4627,6.4643,6.4697,6.4635,6.4696,6.4698,6.469,6.4808,6.4826,6.4919,6.4769,6.4771,6.4773,0,6.4297,6.4338,6.4434,6.4471,6.4491,6.4535,6.4581,6.4621,6.4655,6.4662,6.4692,6.4687,6.4744,6.4703,6.4782,6.474,6.4765,6.4777,6.478,6.4787,6.4741,6.482,6.4948,6.4963,6.4793,6.4791,6.479,0,6.4368,6.4446,6.4514,6.4535,6.4579,6.4611,6.4631,6.4663,6.4692,6.4732,6.4751,6.4795,6.482,6.4855,6.4862,6.4831,6.4942,6.4901,6.495,6.4951,6.4975,6.4974,6.5112,6.4988,6.4988,6.4988,6.4987,0,6.4469,6.4528,6.4548,6.459,6.4657,6.4662,6.4728,6.4745,6.4775,6.482,6.4811,6.4853,6.4859,6.4903,6.4909,6.4975,6.4986,6.4993,6.4994,6.4996,6.4995,6.5013,6.5008,6.4991,6.4991,6.499,6.4989,0,6.4559,6.4574,6.4649,6.4686,6.4697,6.4745,6.4776,6.4817,6.483,6.4887,6.4901,6.4921,6.4973,6.4983,6.5043,6.5047,6.5127,6.512,6.5116,6.5116,6.5166,6.5162,6.5322,6.5344,6.5204,6.5205,6.5206,0,6.4624,6.467,6.4714,6.4745,6.4767,6.4816,6.4847,6.4855,6.4887,6.4932,6.4967,6.5018,6.506,6.5143,6.5162,6.5209,6.5205,6.5257,6.5211,6.5212,6.5209,6.5207,6.5213,6.5267,6.5268,6.5269,6.527,0,6.4738,6.4744,6.479,6.484,6.4878,6.4916,6.4953,6.4978,6.499,6.5027,6.5082,6.5114,6.5178,6.5229,6.5276,6.5296,6.5286,6.5285,6.5299,6.5302,6.5299,6.5304,6.5143,6.5281,6.528,6.5279,6.5279,6.5278,6.482,6.4862,6.49,6.4952,6.4981,6.5016,6.5058,6.5077,6.5123,6.5177,6.5177,6.5237,6.5272,6.5335,6.5358,6.5405,6.5388,6.5408,6.5414,6.5419,6.5425,6.529,6.5413,6.5412,6.5412,6.5412,6.5412,0,6.4936,6.4961,6.5009,6.5062,6.5104,6.5092,6.5133,6.5168,6.5222,6.5256,6.5298,6.5362,6.5412,6.5436,6.5486,6.5519,6.5516,6.5532,6.5531,6.5536,6.5436,6.542,6.5534,6.5534,6.5534,6.5534,6.5534,6.5534,6.5001,6.5073,6.5084,6.517,6.5193,6.5254,6.5279,6.5311,6.534,6.5412,6.5455,6.5471,6.5501,6.5554,6.56,6.5606,6.5626,6.5645,6.5648,6.5555,6.5542,6.5531,6.5516,6.5648,6.5648,6.5745,6.5746,6.5746]}]]